Tabellarische Ansicht des 12.4.2016


Die einzelnen Werte des Tages

Uhrzeit Temperatur Luftdruck Luftfeuchte Wind Hi-Wind Taupunkt THW Index Wind Chill Heat Index Solar- strahlung Regen

00:00

10.3 C

1009.7 hpa

74 %

0.0 km/h aus 117

6.4 km/h aus ENE

5.9 C

10.2 C

10.3 C

10.2 C

0 W/m

0.00 mm

00:05

10.3 C

1009.7 hpa

74 %

0.0 km/h aus 115

0.0 km/h aus ---

5.9 C

10.2 C

10.3 C

10.2 C

0 W/m

0.00 mm

00:10

10.3 C

1009.7 hpa

74 %

0.0 km/h aus 115

0.0 km/h aus ---

5.9 C

10.2 C

10.3 C

10.2 C

0 W/m

0.00 mm

00:15

10.4 C

1009.7 hpa

74 %

0.0 km/h aus 114

0.0 km/h aus ---

6.0 C

10.2 C

10.4 C

10.2 C

0 W/m

0.00 mm

00:20

10.3 C

1009.7 hpa

74 %

1.6 km/h aus 116

6.4 km/h aus ENE

5.9 C

10.2 C

10.3 C

10.2 C

0 W/m

0.00 mm

00:25

10.3 C

1009.7 hpa

74 %

1.6 km/h aus 117

6.4 km/h aus ENE

5.9 C

10.2 C

10.3 C

10.2 C

0 W/m

0.00 mm

00:30

10.3 C

1009.5 hpa

75 %

3.2 km/h aus 117

6.4 km/h aus ENE

6.1 C

10.2 C

10.3 C

10.2 C

0 W/m

0.00 mm

00:35

10.3 C

1009.5 hpa

75 %

3.2 km/h aus 117

8.0 km/h aus NE

6.1 C

10.2 C

10.3 C

10.2 C

0 W/m

0.00 mm

00:40

10.3 C

1009.5 hpa

75 %

1.6 km/h aus 115

6.4 km/h aus NE

6.1 C

10.2 C

10.3 C

10.2 C

0 W/m

0.00 mm

00:45

10.3 C

1009.5 hpa

75 %

3.2 km/h aus 115

8.0 km/h aus NE

6.0 C

10.2 C

10.3 C

10.2 C

0 W/m

0.00 mm

00:50

10.3 C

1009.5 hpa

75 %

3.2 km/h aus 117

8.0 km/h aus NE

6.0 C

10.2 C

10.3 C

10.2 C

0 W/m

0.00 mm

00:55

10.2 C

1009.5 hpa

75 %

3.2 km/h aus 117

8.0 km/h aus NE

6.0 C

10.1 C

10.2 C

10.1 C

0 W/m

0.00 mm

01:00

10.2 C

1009.5 hpa

75 %

3.2 km/h aus 117

8.0 km/h aus NE

6.0 C

10.1 C

10.2 C

10.1 C

0 W/m

0.00 mm

01:05

10.2 C

1009.5 hpa

75 %

1.6 km/h aus 116

8.0 km/h aus NE

6.0 C

10.1 C

10.2 C

10.1 C

0 W/m

0.00 mm

01:10

10.2 C

1009.5 hpa

76 %

3.2 km/h aus 112

8.0 km/h aus NE

6.2 C

10.1 C

10.2 C

10.1 C

0 W/m

0.00 mm

01:15

10.2 C

1009.3 hpa

76 %

6.4 km/h aus 116

11.3 km/h aus NE

6.2 C

9.5 C

9.6 C

10.1 C

0 W/m

0.00 mm

01:20

10.2 C

1009.3 hpa

76 %

4.8 km/h aus 115

9.7 km/h aus ENE

6.2 C

9.9 C

10.1 C

10.1 C

0 W/m

0.00 mm

01:25

10.2 C

1009.3 hpa

76 %

4.8 km/h aus 118

8.0 km/h aus NE

6.2 C

9.9 C

10.1 C

10.1 C

0 W/m

0.00 mm

01:30

10.2 C

1009.2 hpa

76 %

3.2 km/h aus 116

9.7 km/h aus NE

6.2 C

10.1 C

10.2 C

10.1 C

0 W/m

0.00 mm

01:35

10.2 C

1009.2 hpa

76 %

4.8 km/h aus 115

8.0 km/h aus NE

6.2 C

9.9 C

10.1 C

10.1 C

0 W/m

0.00 mm

01:40

10.2 C

1009.2 hpa

76 %

6.4 km/h aus 113

11.3 km/h aus NE

6.2 C

9.5 C

9.6 C

10.1 C

0 W/m

0.00 mm

01:45

10.2 C

1009.2 hpa

76 %

6.4 km/h aus 116

14.5 km/h aus NE

6.2 C

9.5 C

9.6 C

10.1 C

0 W/m

0.00 mm

01:50

10.2 C

1009.2 hpa

76 %

4.8 km/h aus 116

16.1 km/h aus NE

6.2 C

9.9 C

10.1 C

10.1 C

0 W/m

0.00 mm

01:55

10.2 C

1009.2 hpa

76 %

4.8 km/h aus 116

9.7 km/h aus NNE

6.2 C

9.9 C

10.1 C

10.1 C

0 W/m

0.00 mm

02:00

10.2 C

1009.1 hpa

76 %

6.4 km/h aus 117

11.3 km/h aus NNE

6.2 C

9.5 C

9.6 C

10.1 C

0 W/m

0.00 mm

02:05

10.2 C

1009.1 hpa

76 %

6.4 km/h aus 114

14.5 km/h aus NE

6.2 C

9.5 C

9.6 C

10.1 C

0 W/m

0.00 mm

02:10

10.2 C

1009.1 hpa

76 %

8.0 km/h aus 115

12.9 km/h aus ENE

6.2 C

9.2 C

9.3 C

10.1 C

0 W/m

0.00 mm

02:15

10.2 C

1008.9 hpa

76 %

8.0 km/h aus 115

16.1 km/h aus NE

6.2 C

9.2 C

9.3 C

10.1 C

0 W/m

0.00 mm

02:20

10.2 C

1008.9 hpa

76 %

6.4 km/h aus 117

16.1 km/h aus NNE

6.2 C

9.5 C

9.6 C

10.1 C

0 W/m

0.00 mm

02:25

10.3 C

1008.9 hpa

76 %

6.4 km/h aus 117

12.9 km/h aus E

6.2 C

9.6 C

9.7 C

10.2 C

0 W/m

0.00 mm

02:30

10.3 C

1008.7 hpa

76 %

8.0 km/h aus 117

16.1 km/h aus ENE

6.2 C

9.2 C

9.3 C

10.2 C

0 W/m

0.00 mm

02:35

10.3 C

1008.7 hpa

76 %

8.0 km/h aus 115

16.1 km/h aus ENE

6.2 C

9.2 C

9.3 C

10.2 C

0 W/m

0.00 mm

02:40

10.3 C

1008.7 hpa

76 %

4.8 km/h aus 116

14.5 km/h aus NE

6.2 C

10.1 C

10.2 C

10.2 C

0 W/m

0.00 mm

02:45

10.2 C

1008.7 hpa

76 %

4.8 km/h aus 115

16.1 km/h aus NE

6.2 C

9.9 C

10.1 C

10.1 C

0 W/m

0.00 mm

02:50

10.2 C

1008.7 hpa

76 %

6.4 km/h aus 117

14.5 km/h aus NE

6.2 C

9.5 C

9.6 C

10.1 C

0 W/m

0.00 mm

02:55

10.2 C

1008.7 hpa

76 %

4.8 km/h aus 117

11.3 km/h aus NE

6.2 C

9.9 C

10.1 C

10.1 C

0 W/m

0.00 mm

03:00

10.2 C

1008.5 hpa

76 %

4.8 km/h aus 116

16.1 km/h aus NE

6.1 C

9.9 C

10.0 C

10.1 C

0 W/m

0.00 mm

03:05

10.2 C

1008.5 hpa

76 %

3.2 km/h aus 114

11.3 km/h aus NE

6.1 C

10.1 C

10.2 C

10.1 C

0 W/m

0.00 mm

03:10

10.2 C

1008.5 hpa

76 %

3.2 km/h aus 117

9.7 km/h aus ENE

6.1 C

10.1 C

10.2 C

10.1 C

0 W/m

0.00 mm

03:15

10.1 C

1008.3 hpa

76 %

1.6 km/h aus 117

6.4 km/h aus ENE

6.1 C

10.0 C

10.1 C

10.0 C

0 W/m

0.00 mm

03:20

10.2 C

1008.3 hpa

77 %

3.2 km/h aus 116

9.7 km/h aus NE

6.3 C

10.1 C

10.2 C

10.1 C

0 W/m

0.00 mm

03:25

10.1 C

1008.3 hpa

77 %

4.8 km/h aus 116

9.7 km/h aus NE

6.3 C

9.9 C

9.9 C

10.1 C

0 W/m

0.00 mm

03:30

10.1 C

1008.1 hpa

77 %

3.2 km/h aus 115

11.3 km/h aus NE

6.3 C

10.1 C

10.1 C

10.1 C

0 W/m

0.00 mm

03:35

10.1 C

1008.1 hpa

77 %

1.6 km/h aus 116

8.0 km/h aus NE

6.2 C

10.0 C

10.1 C

10.0 C

0 W/m

0.00 mm

03:40

10.0 C

1008.1 hpa

77 %

1.6 km/h aus 117

8.0 km/h aus ENE

6.2 C

9.9 C

10.0 C

9.9 C

0 W/m

0.00 mm

03:45

9.9 C

1008.1 hpa

77 %

1.6 km/h aus 116

6.4 km/h aus ENE

6.1 C

9.9 C

9.9 C

9.9 C

0 W/m

0.00 mm

03:50

9.9 C

1008.1 hpa

77 %

0.0 km/h aus 117

3.2 km/h aus ENE

6.0 C

9.8 C

9.9 C

9.8 C

0 W/m

0.00 mm

03:55

9.8 C

1008.1 hpa

77 %

1.6 km/h aus 117

4.8 km/h aus ENE

6.0 C

9.8 C

9.8 C

9.8 C

0 W/m

0.00 mm

04:00

9.7 C

1007.9 hpa

77 %

1.6 km/h aus 114

6.4 km/h aus ENE

5.9 C

9.6 C

9.7 C

9.6 C

0 W/m

0.00 mm

04:05

9.7 C

1007.9 hpa

77 %

1.6 km/h aus 115

4.8 km/h aus ENE

5.8 C

9.6 C

9.7 C

9.6 C

0 W/m

0.00 mm

04:10

9.6 C

1007.9 hpa

78 %

3.2 km/h aus 117

8.0 km/h aus ENE

5.9 C

9.4 C

9.6 C

9.4 C

0 W/m

0.00 mm

04:15

9.4 C

1007.9 hpa

78 %

0.0 km/h aus 117

4.8 km/h aus ENE

5.8 C

9.3 C

9.4 C

9.3 C

0 W/m

0.00 mm

04:20

9.3 C

1007.9 hpa

79 %

0.0 km/h aus 115

0.0 km/h aus ---

5.8 C

9.2 C

9.3 C

9.2 C

0 W/m

0.00 mm

04:25

9.2 C

1007.9 hpa

79 %

0.0 km/h aus 115

4.8 km/h aus ENE

5.8 C

9.2 C

9.2 C

9.2 C

0 W/m

0.00 mm

04:30

9.1 C

1007.9 hpa

79 %

0.0 km/h aus 114

0.0 km/h aus ---

5.7 C

9.1 C

9.1 C

9.1 C

0 W/m

0.00 mm

04:35

9.0 C

1007.9 hpa

79 %

0.0 km/h aus 116

4.8 km/h aus ENE

5.6 C

8.9 C

9.0 C

8.9 C

0 W/m

0.00 mm

04:40

8.9 C

1007.9 hpa

80 %

0.0 km/h aus 118

3.2 km/h aus ENE

5.6 C

8.8 C

8.9 C

8.8 C

0 W/m

0.00 mm

04:45

8.8 C

1007.7 hpa

80 %

0.0 km/h aus 117

3.2 km/h aus ENE

5.5 C

8.7 C

8.8 C

8.7 C

0 W/m

0.00 mm

04:50

8.7 C

1007.7 hpa

80 %

0.0 km/h aus 116

1.6 km/h aus ENE

5.5 C

8.7 C

8.7 C

8.7 C

0 W/m

0.00 mm

04:55

8.6 C

1007.7 hpa

81 %

0.0 km/h aus 116

0.0 km/h aus ---

5.5 C

8.6 C

8.6 C

8.6 C

0 W/m

0.00 mm

05:00

8.6 C

1007.7 hpa

81 %

0.0 km/h aus 114

0.0 km/h aus ---

5.5 C

8.5 C

8.6 C

8.5 C

0 W/m

0.00 mm

05:05

8.5 C

1007.7 hpa

81 %

0.0 km/h aus 113

1.6 km/h aus ENE

5.4 C

8.4 C

8.5 C

8.4 C

0 W/m

0.00 mm

05:10

8.4 C

1007.7 hpa

82 %

0.0 km/h aus 116

4.8 km/h aus ENE

5.5 C

8.4 C

8.4 C

8.4 C

0 W/m

0.00 mm

05:15

8.4 C

1007.4 hpa

82 %

0.0 km/h aus 117

4.8 km/h aus ENE

5.5 C

8.3 C

8.4 C

8.3 C

0 W/m

0.00 mm

05:20

8.4 C

1007.4 hpa

83 %

1.6 km/h aus 116

6.4 km/h aus ENE

5.7 C

8.3 C

8.4 C

8.3 C

0 W/m

0.00 mm

05:25

8.4 C

1007.4 hpa

83 %

0.0 km/h aus 117

3.2 km/h aus ENE

5.7 C

8.3 C

8.4 C

8.3 C

0 W/m

0.00 mm

05:30

8.4 C

1007.3 hpa

83 %

0.0 km/h aus 114

0.0 km/h aus ---

5.7 C

8.3 C

8.4 C

8.3 C

0 W/m

0.00 mm

05:35

8.4 C

1007.3 hpa

83 %

0.0 km/h aus 114

0.0 km/h aus ---

5.7 C

8.3 C

8.4 C

8.3 C

0 W/m

0.00 mm

05:40

8.4 C

1007.3 hpa

83 %

0.0 km/h aus 118

0.0 km/h aus ---

5.7 C

8.3 C

8.4 C

8.3 C

0 W/m

0.00 mm

05:45

8.4 C

1007.6 hpa

83 %

0.0 km/h aus 117

0.0 km/h aus ---

5.7 C

8.3 C

8.4 C

8.3 C

0 W/m

0.00 mm

05:50

8.3 C

1007.6 hpa

82 %

0.0 km/h aus 117

0.0 km/h aus ---

5.4 C

8.3 C

8.3 C

8.3 C

0 W/m

0.00 mm

05:55

8.3 C

1007.6 hpa

83 %

0.0 km/h aus 117

0.0 km/h aus ---

5.6 C

8.3 C

8.3 C

8.3 C

0 W/m

0.00 mm

06:00

8.3 C

1007.5 hpa

83 %

0.0 km/h aus 115

0.0 km/h aus ---

5.6 C

8.2 C

8.3 C

8.2 C

0 W/m

0.00 mm

06:05

8.2 C

1007.5 hpa

83 %

0.0 km/h aus 113

0.0 km/h aus ---

5.5 C

8.1 C

8.2 C

8.1 C

0 W/m

0.00 mm

06:10

8.1 C

1007.5 hpa

83 %

0.0 km/h aus 117

1.6 km/h aus ENE

5.4 C

8.1 C

8.1 C

8.1 C

0 W/m

0.00 mm

06:15

8.1 C

1007.5 hpa

83 %

0.0 km/h aus 117

0.0 km/h aus ---

5.3 C

8.0 C

8.1 C

8.0 C

0 W/m

0.00 mm

06:20

7.9 C

1007.5 hpa

83 %

0.0 km/h aus 117

0.0 km/h aus ---

5.2 C

7.9 C

7.9 C

7.9 C

0 W/m

0.00 mm

06:25

7.8 C

1007.5 hpa

84 %

0.0 km/h aus 117

0.0 km/h aus ---

5.3 C

7.8 C

7.8 C

7.8 C

0 W/m

0.00 mm

06:30

7.8 C

1007.6 hpa

84 %

0.0 km/h aus 116

0.0 km/h aus ---

5.2 C

7.8 C

7.8 C

7.8 C

0 W/m

0.00 mm

06:35

7.7 C

1007.6 hpa

84 %

0.0 km/h aus 115

0.0 km/h aus ---

5.1 C

7.6 C

7.7 C

7.6 C

6 W/m

0.00 mm

06:40

7.6 C

1007.6 hpa

84 %

0.0 km/h aus 115

1.6 km/h aus ENE

5.0 C

7.5 C

7.6 C

7.5 C

10 W/m

0.00 mm

06:45

7.4 C

1007.6 hpa

85 %

0.0 km/h aus 118

0.0 km/h aus ---

5.1 C

7.4 C

7.4 C

7.4 C

13 W/m

0.00 mm

06:50

7.4 C

1007.6 hpa

85 %

0.0 km/h aus 116

4.8 km/h aus ENE

5.0 C

7.3 C

7.4 C

7.3 C

17 W/m

0.00 mm

06:55

7.3 C

1007.6 hpa

85 %

0.0 km/h aus 117

0.0 km/h aus ---

5.0 C

7.3 C

7.3 C

7.3 C

19 W/m

0.00 mm

07:00

7.3 C

1007.5 hpa

86 %

0.0 km/h aus 117

0.0 km/h aus ---

5.1 C

7.2 C

7.3 C

7.2 C

21 W/m

0.00 mm

07:05

7.3 C

1007.5 hpa

86 %

0.0 km/h aus 115

0.0 km/h aus ---

5.1 C

7.2 C

7.3 C

7.2 C

26 W/m

0.00 mm

07:10

7.2 C

1007.5 hpa

85 %

0.0 km/h aus 114

0.0 km/h aus ---

4.9 C

7.2 C

7.2 C

7.2 C

31 W/m

0.00 mm

07:15

7.2 C

1007.6 hpa

86 %

0.0 km/h aus 116

3.2 km/h aus ENE

5.0 C

7.1 C

7.2 C

7.1 C

34 W/m

0.00 mm

07:20

7.2 C

1007.6 hpa

86 %

0.0 km/h aus 117

0.0 km/h aus ---

5.0 C

7.1 C

7.2 C

7.1 C

42 W/m

0.00 mm

07:25

7.1 C

1007.6 hpa

86 %

0.0 km/h aus 117

0.0 km/h aus ---

4.9 C

7.1 C

7.1 C

7.1 C

50 W/m

0.00 mm

07:30

7.1 C

1007.6 hpa

87 %

0.0 km/h aus 116

0.0 km/h aus ---

5.1 C

7.1 C

7.1 C

7.1 C

60 W/m

0.00 mm

07:35

7.1 C

1007.6 hpa

87 %

0.0 km/h aus 117

1.6 km/h aus ENE

5.1 C

7.1 C

7.1 C

7.1 C

80 W/m

0.00 mm

07:40

7.2 C

1007.6 hpa

88 %

1.6 km/h aus 114

6.4 km/h aus ENE

5.3 C

7.2 C

7.2 C

7.2 C

114 W/m

0.00 mm

07:45

7.3 C

1007.5 hpa

89 %

1.6 km/h aus 114

4.8 km/h aus ENE

5.6 C

7.4 C

7.3 C

7.4 C

134 W/m

0.00 mm

07:50

7.5 C

1007.5 hpa

89 %

3.2 km/h aus 118

9.7 km/h aus NE

5.8 C

7.6 C

7.5 C

7.6 C

140 W/m

0.00 mm

07:55

7.8 C

1007.5 hpa

89 %

3.2 km/h aus 116

6.4 km/h aus NE

6.1 C

7.8 C

7.8 C

7.8 C

143 W/m

0.00 mm

08:00

8.0 C

1007.4 hpa

88 %

1.6 km/h aus 117

6.4 km/h aus NE

6.1 C

8.1 C

8.0 C

8.1 C

123 W/m

0.00 mm

08:05

8.2 C

1007.4 hpa

88 %

1.6 km/h aus 117

4.8 km/h aus NE

6.3 C

8.2 C

8.2 C

8.2 C

85 W/m

0.00 mm

08:10

8.3 C

1007.4 hpa

87 %

1.6 km/h aus 115

4.8 km/h aus NE

6.3 C

8.4 C

8.3 C

8.4 C

98 W/m

0.00 mm

08:15

8.4 C

1007.4 hpa

87 %

0.0 km/h aus 115

0.0 km/h aus ---

6.4 C

8.5 C

8.4 C

8.5 C

170 W/m

0.00 mm

08:20

8.7 C

1007.4 hpa

87 %

0.0 km/h aus 117

1.6 km/h aus NE

6.6 C

8.7 C

8.7 C

8.7 C

201 W/m

0.00 mm

08:25

9.0 C

1007.4 hpa

86 %

1.6 km/h aus 116

6.4 km/h aus NE

6.8 C

9.1 C

9.0 C

9.1 C

235 W/m

0.00 mm

08:30

9.3 C

1007.3 hpa

85 %

3.2 km/h aus 117

6.4 km/h aus NE

6.9 C

9.4 C

9.3 C

9.4 C

265 W/m

0.00 mm

08:35

9.7 C

1007.3 hpa

84 %

4.8 km/h aus 116

9.7 km/h aus NE

7.1 C

9.5 C

9.4 C

9.7 C

241 W/m

0.00 mm

08:40

9.9 C

1007.3 hpa

83 %

3.2 km/h aus 113

8.0 km/h aus NE

7.2 C

10.0 C

9.9 C

10.0 C

154 W/m

0.00 mm

08:45

10.2 C

1007.3 hpa

81 %

1.6 km/h aus 116

3.2 km/h aus ESE

7.1 C

10.2 C

10.2 C

10.2 C

160 W/m

0.00 mm

08:50

10.2 C

1007.3 hpa

81 %

3.2 km/h aus 117

8.0 km/h aus E

7.1 C

10.2 C

10.2 C

10.2 C

169 W/m

0.00 mm

08:55

10.3 C

1007.3 hpa

81 %

3.2 km/h aus 118

8.0 km/h aus E

7.2 C

10.3 C

10.3 C

10.3 C

185 W/m

0.00 mm

09:00

10.4 C

1007.2 hpa

81 %

1.6 km/h aus 117

4.8 km/h aus E

7.3 C

10.4 C

10.4 C

10.4 C

197 W/m

0.00 mm

09:05

10.6 C

1007.2 hpa

81 %

3.2 km/h aus 114

6.4 km/h aus E

7.5 C

10.6 C

10.6 C

10.6 C

295 W/m

0.00 mm

09:10

11.1 C

1007.2 hpa

81 %

3.2 km/h aus 116

8.0 km/h aus ESE

8.0 C

11.0 C

11.1 C

11.0 C

430 W/m

0.00 mm

09:15

11.3 C

1007.2 hpa

79 %

6.4 km/h aus 116

11.3 km/h aus SE

7.8 C

10.7 C

10.8 C

11.1 C

440 W/m

0.00 mm

09:20

11.8 C

1007.2 hpa

77 %

3.2 km/h aus 117

11.3 km/h aus SE

7.9 C

11.6 C

11.8 C

11.6 C

421 W/m

0.00 mm

09:25

12.0 C

1007.2 hpa

76 %

8.0 km/h aus 116

16.1 km/h aus SSE

7.9 C

11.1 C

11.3 C

11.7 C

394 W/m

0.00 mm

09:30

11.9 C

1007.1 hpa

76 %

4.8 km/h aus 115

9.7 km/h aus ESE

7.8 C

11.6 C

11.9 C

11.6 C

326 W/m

0.00 mm

09:35

11.8 C

1007.1 hpa

75 %

6.4 km/h aus 115

11.3 km/h aus ESE

7.5 C

11.1 C

11.4 C

11.5 C

337 W/m

0.00 mm

09:40

11.8 C

1007.1 hpa

74 %

4.8 km/h aus 117

9.7 km/h aus ESE

7.3 C

11.6 C

11.8 C

11.6 C

403 W/m

0.00 mm

09:45

12.1 C

1007.2 hpa

74 %

1.6 km/h aus 116

8.0 km/h aus ESE

7.6 C

11.8 C

12.1 C

11.8 C

404 W/m

0.00 mm

09:50

12.3 C

1007.2 hpa

73 %

3.2 km/h aus 116

8.0 km/h aus SE

7.6 C

12.0 C

12.3 C

12.0 C

450 W/m

0.00 mm

09:55

12.3 C

1007.2 hpa

73 %

1.6 km/h aus 114

8.0 km/h aus SE

7.6 C

12.0 C

12.3 C

12.0 C

451 W/m

0.00 mm

10:00

12.7 C

1007.1 hpa

73 %

1.6 km/h aus 114

8.0 km/h aus ESE

7.9 C

12.3 C

12.7 C

12.3 C

459 W/m

0.00 mm

10:05

12.9 C

1007.1 hpa

73 %

4.8 km/h aus 116

11.3 km/h aus SSE

8.2 C

12.6 C

12.9 C

12.6 C

487 W/m

0.00 mm

10:10

13.0 C

1007.1 hpa

73 %

4.8 km/h aus 117

9.7 km/h aus SE

8.3 C

12.7 C

13.0 C

12.7 C

417 W/m

0.00 mm

10:15

13.1 C

1007.2 hpa

74 %

0.0 km/h aus 117

8.0 km/h aus SE

8.5 C

12.7 C

13.1 C

12.7 C

512 W/m

0.00 mm

10:20

13.2 C

1007.2 hpa

71 %

1.6 km/h aus 114

8.0 km/h aus ESE

8.0 C

12.7 C

13.2 C

12.7 C

518 W/m

0.00 mm

10:25

13.3 C

1007.2 hpa

71 %

1.6 km/h aus 115

6.4 km/h aus SE

8.1 C

12.8 C

13.3 C

12.8 C

545 W/m

0.00 mm

10:30

13.5 C

1007.1 hpa

72 %

0.0 km/h aus 117

9.7 km/h aus SE

8.5 C

13.1 C

13.5 C

13.1 C

586 W/m

0.00 mm

10:35

13.7 C

1007.1 hpa

67 %

1.6 km/h aus 117

6.4 km/h aus S

7.7 C

13.2 C

13.7 C

13.2 C

587 W/m

0.00 mm

10:40

14.1 C

1007.1 hpa

68 %

1.6 km/h aus 117

6.4 km/h aus S

8.3 C

13.6 C

14.1 C

13.6 C

627 W/m

0.00 mm

10:45

14.2 C

1007.3 hpa

65 %

1.6 km/h aus 113

8.0 km/h aus S

7.7 C

13.6 C

14.2 C

13.6 C

655 W/m

0.00 mm

10:50

14.1 C

1007.3 hpa

67 %

1.6 km/h aus 116

4.8 km/h aus S

8.0 C

13.6 C

14.1 C

13.6 C

447 W/m

0.00 mm

10:55

13.9 C

1007.3 hpa

66 %

3.2 km/h aus 117

11.3 km/h aus SW

7.7 C

13.4 C

13.9 C

13.4 C

434 W/m

0.00 mm

11:00

14.2 C

1007.3 hpa

70 %

1.6 km/h aus 117

11.3 km/h aus S

8.8 C

13.7 C

14.2 C

13.7 C

353 W/m

0.00 mm

11:05

13.9 C

1007.3 hpa

66 %

3.2 km/h aus 117

8.0 km/h aus SSW

7.7 C

13.4 C

13.9 C

13.4 C

304 W/m

0.00 mm

11:10

13.7 C

1007.3 hpa

68 %

0.0 km/h aus 114

4.8 km/h aus SW

7.9 C

13.2 C

13.7 C

13.2 C

299 W/m

0.00 mm

11:15

14.0 C

1007.3 hpa

65 %

1.6 km/h aus 117

11.3 km/h aus SSW

7.5 C

13.4 C

14.0 C

13.4 C

320 W/m

0.00 mm

11:20

14.8 C

1007.3 hpa

65 %

4.8 km/h aus 116

9.7 km/h aus S

8.3 C

14.2 C

14.8 C

14.2 C

765 W/m

0.00 mm

11:25

14.9 C

1007.3 hpa

62 %

4.8 km/h aus 116

9.7 km/h aus SW

7.7 C

14.2 C

14.9 C

14.2 C

591 W/m

0.00 mm

11:30

15.0 C

1007.3 hpa

64 %

3.2 km/h aus 115

9.7 km/h aus W

8.2 C

14.4 C

15.0 C

14.4 C

422 W/m

0.00 mm

11:35

14.9 C

1007.3 hpa

62 %

1.6 km/h aus 115

8.0 km/h aus W

7.7 C

14.3 C

14.9 C

14.3 C

437 W/m

0.00 mm

11:40

14.9 C

1007.3 hpa

64 %

3.2 km/h aus 117

9.7 km/h aus WSW

8.1 C

14.3 C

14.9 C

14.3 C

329 W/m

0.00 mm

11:45

14.7 C

1007.1 hpa

64 %

1.6 km/h aus 117

8.0 km/h aus WSW

8.0 C

14.1 C

14.7 C

14.1 C

349 W/m

0.00 mm

11:50

14.7 C

1007.1 hpa

64 %

3.2 km/h aus 117

9.7 km/h aus WSW

8.0 C

14.1 C

14.7 C

14.1 C

394 W/m

0.00 mm

11:55

14.7 C

1007.1 hpa

63 %

1.6 km/h aus 115

9.7 km/h aus WSW

7.7 C

14.1 C

14.7 C

14.1 C

349 W/m

0.00 mm

12:00

14.4 C

1007.1 hpa

63 %

1.6 km/h aus 115

6.4 km/h aus WSW

7.5 C

13.8 C

14.4 C

13.8 C

306 W/m

0.00 mm

12:05

14.9 C

1007.1 hpa

64 %

0.0 km/h aus 116

3.2 km/h aus SW

8.1 C

14.3 C

14.9 C

14.3 C

412 W/m

0.00 mm

12:10

15.4 C

1007.1 hpa

65 %

0.0 km/h aus 118

4.8 km/h aus W

8.8 C

14.9 C

15.4 C

14.9 C

771 W/m

0.00 mm

12:15

15.5 C

1007.1 hpa

61 %

3.2 km/h aus 117

8.0 km/h aus W

8.0 C

14.8 C

15.5 C

14.8 C

333 W/m

0.00 mm

12:20

15.2 C

1007.1 hpa

62 %

1.6 km/h aus 114

8.0 km/h aus WSW

8.0 C

14.6 C

15.2 C

14.6 C

367 W/m

0.00 mm

12:25

15.2 C

1007.1 hpa

62 %

3.2 km/h aus 116

9.7 km/h aus NW

7.9 C

14.5 C

15.2 C

14.5 C

464 W/m

0.00 mm

12:30

15.1 C

1007.1 hpa

62 %

3.2 km/h aus 117

9.7 km/h aus NW

7.8 C

14.4 C

15.1 C

14.4 C

386 W/m

0.00 mm

12:35

15.7 C

1007.1 hpa

61 %

6.4 km/h aus 117

11.3 km/h aus WSW

8.2 C

15.1 C

15.7 C

15.1 C

543 W/m

0.00 mm

12:40

15.7 C

1007.1 hpa

63 %

4.8 km/h aus 116

11.3 km/h aus S

8.7 C

15.2 C

15.7 C

15.2 C

605 W/m

0.00 mm

12:45

15.6 C

1007.0 hpa

60 %

3.2 km/h aus 114

11.3 km/h aus SW

7.8 C

14.8 C

15.6 C

14.8 C

678 W/m

0.00 mm

12:50

15.9 C

1007.0 hpa

60 %

3.2 km/h aus 117

8.0 km/h aus SSW

8.2 C

15.3 C

15.9 C

15.3 C

780 W/m

0.00 mm

12:55

16.0 C

1007.0 hpa

60 %

1.6 km/h aus 117

6.4 km/h aus W

8.2 C

15.3 C

16.0 C

15.3 C

505 W/m

0.00 mm

13:00

15.9 C

1006.9 hpa

58 %

3.2 km/h aus 117

9.7 km/h aus SSW

7.7 C

15.2 C

15.9 C

15.2 C

445 W/m

0.00 mm

13:05

16.0 C

1006.9 hpa

59 %

1.6 km/h aus 115

6.4 km/h aus WSW

8.0 C

15.3 C

16.0 C

15.3 C

502 W/m

0.00 mm

13:10

16.2 C

1006.9 hpa

58 %

0.0 km/h aus 115

4.8 km/h aus SSW

7.9 C

15.4 C

16.2 C

15.4 C

613 W/m

0.00 mm

13:15

16.4 C

1006.9 hpa

60 %

1.6 km/h aus 117

6.4 km/h aus SSW

8.6 C

15.7 C

16.4 C

15.7 C

550 W/m

0.00 mm

13:20

16.3 C

1006.9 hpa

60 %

6.4 km/h aus 117

12.9 km/h aus WSW

8.5 C

15.7 C

16.3 C

15.7 C

488 W/m

0.00 mm

13:25

16.2 C

1006.9 hpa

57 %

1.6 km/h aus 116

9.7 km/h aus S

7.7 C

15.4 C

16.2 C

15.4 C

540 W/m

0.00 mm

13:30

16.3 C

1006.7 hpa

57 %

1.6 km/h aus 115

11.3 km/h aus S

7.8 C

15.6 C

16.3 C

15.6 C

440 W/m

0.00 mm

13:35

16.1 C

1006.7 hpa

60 %

0.0 km/h aus 116

0.0 km/h aus ---

8.3 C

15.4 C

16.1 C

15.4 C

409 W/m

0.00 mm

13:40

16.3 C

1006.7 hpa

59 %

3.2 km/h aus 116

11.3 km/h aus S

8.3 C

15.6 C

16.3 C

15.6 C

427 W/m

0.00 mm

13:45

16.1 C

1006.7 hpa

60 %

0.0 km/h aus 117

4.8 km/h aus S

8.3 C

15.4 C

16.1 C

15.4 C

395 W/m

0.00 mm

13:50

16.2 C

1006.7 hpa

59 %

0.0 km/h aus 115

6.4 km/h aus SW

8.1 C

15.4 C

16.2 C

15.4 C

403 W/m

0.00 mm

13:55

16.3 C

1006.7 hpa

59 %

4.8 km/h aus 114

9.7 km/h aus SSW

8.2 C

15.6 C

16.3 C

15.6 C

372 W/m

0.00 mm

14:00

16.4 C

1006.6 hpa

59 %

3.2 km/h aus 117

8.0 km/h aus SSW

8.4 C

15.7 C

16.4 C

15.7 C

331 W/m

0.00 mm

14:05

16.4 C

1006.6 hpa

58 %

1.6 km/h aus 115

6.4 km/h aus WSW

8.2 C

15.7 C

16.4 C

15.7 C

306 W/m

0.00 mm

14:10

16.3 C

1006.6 hpa

62 %

4.8 km/h aus 117

11.3 km/h aus S

9.0 C

15.8 C

16.3 C

15.8 C

286 W/m

0.00 mm

14:15

16.3 C

1006.6 hpa

61 %

6.4 km/h aus 117

11.3 km/h aus S

8.7 C

15.7 C

16.3 C

15.7 C

277 W/m

0.00 mm

14:20

16.3 C

1006.6 hpa

60 %

1.6 km/h aus 114

9.7 km/h aus S

8.5 C

15.6 C

16.3 C

15.6 C

278 W/m

0.00 mm

14:25

16.3 C

1006.6 hpa

60 %

3.2 km/h aus 117

11.3 km/h aus S

8.5 C

15.7 C

16.3 C

15.7 C

275 W/m

0.00 mm

14:30

16.5 C

1006.6 hpa

60 %

0.0 km/h aus 116

8.0 km/h aus W

8.7 C

15.8 C

16.5 C

15.8 C

273 W/m

0.00 mm

14:35

16.7 C

1006.6 hpa

59 %

1.6 km/h aus 117

8.0 km/h aus W

8.6 C

15.9 C

16.7 C

15.9 C

311 W/m

0.00 mm

14:40

16.6 C

1006.6 hpa

61 %

0.0 km/h aus 115

0.0 km/h aus ---

9.0 C

15.9 C

16.6 C

15.9 C

331 W/m

0.00 mm

14:45

16.6 C

1006.6 hpa

59 %

0.0 km/h aus 115

0.0 km/h aus ---

8.5 C

15.8 C

16.6 C

15.8 C

338 W/m

0.00 mm

14:50

16.7 C

1006.6 hpa

56 %

1.6 km/h aus 117

8.0 km/h aus SW

7.8 C

15.9 C

16.7 C

15.9 C

362 W/m

0.00 mm

14:55

16.8 C

1006.6 hpa

55 %

4.8 km/h aus 117

11.3 km/h aus WSW

7.7 C

16.0 C

16.8 C

16.0 C

399 W/m

0.00 mm

15:00

16.9 C

1006.5 hpa

57 %

3.2 km/h aus 117

9.7 km/h aus WSW

8.4 C

16.2 C

16.9 C

16.2 C

420 W/m

0.00 mm

15:05

17.1 C

1006.5 hpa

60 %

3.2 km/h aus 114

16.1 km/h aus S

9.3 C

16.5 C

17.1 C

16.5 C

484 W/m

0.00 mm

15:10

17.1 C

1006.5 hpa

55 %

1.6 km/h aus 116

9.7 km/h aus S

7.9 C

16.3 C

17.1 C

16.3 C

481 W/m

0.00 mm

15:15

17.1 C

1006.3 hpa

59 %

1.6 km/h aus 117

9.7 km/h aus SE

9.0 C

16.4 C

17.1 C

16.4 C

467 W/m

0.00 mm

15:20

17.1 C

1006.3 hpa

56 %

1.6 km/h aus 118

8.0 km/h aus SE

8.3 C

16.3 C

17.1 C

16.3 C

459 W/m

0.00 mm

15:25

16.8 C

1006.3 hpa

58 %

0.0 km/h aus 117

0.0 km/h aus ---

8.5 C

16.1 C

16.8 C

16.1 C

376 W/m

0.00 mm

15:30

17.2 C

1006.2 hpa

59 %

1.6 km/h aus 113

6.4 km/h aus SSE

9.1 C

16.6 C

17.2 C

16.6 C

355 W/m

0.00 mm

15:35

17.1 C

1006.2 hpa

58 %

0.0 km/h aus 115

0.0 km/h aus ---

8.7 C

16.4 C

17.1 C

16.4 C

370 W/m

0.00 mm

15:40

17.1 C

1006.2 hpa

56 %

0.0 km/h aus 116

0.0 km/h aus ---

8.3 C

16.3 C

17.1 C

16.3 C

386 W/m

0.00 mm

15:45

17.1 C

1006.1 hpa

58 %

0.0 km/h aus 117

6.4 km/h aus SSE

8.8 C

16.4 C

17.1 C

16.4 C

331 W/m

0.00 mm

15:50

17.2 C

1006.1 hpa

58 %

4.8 km/h aus 116

8.0 km/h aus SSE

8.9 C

16.6 C

17.2 C

16.6 C

360 W/m

0.00 mm

15:55

17.2 C

1006.1 hpa

54 %

3.2 km/h aus 115

6.4 km/h aus S

7.8 C

16.4 C

17.2 C

16.4 C

346 W/m

0.00 mm

16:00

17.2 C

1006.1 hpa

54 %

0.0 km/h aus 117

0.0 km/h aus ---

7.8 C

16.4 C

17.2 C

16.4 C

347 W/m

0.00 mm

16:05

17.3 C

1006.1 hpa

58 %

3.2 km/h aus 117

8.0 km/h aus SSW

8.9 C

16.6 C

17.3 C

16.6 C

312 W/m

0.00 mm

16:10

17.1 C

1006.1 hpa

52 %

3.2 km/h aus 117

8.0 km/h aus S

7.1 C

16.1 C

17.1 C

16.1 C

288 W/m

0.00 mm

16:15

16.9 C

1006.0 hpa

55 %

0.0 km/h aus 115

0.0 km/h aus ---

7.8 C

16.1 C

16.9 C

16.1 C

302 W/m

0.00 mm

16:20

17.2 C

1006.0 hpa

50 %

1.6 km/h aus 116

6.4 km/h aus WSW

6.7 C

16.2 C

17.2 C

16.2 C

340 W/m

0.00 mm

16:25

17.3 C

1006.0 hpa

54 %

4.8 km/h aus 118

9.7 km/h aus SSW

7.9 C

16.5 C

17.3 C

16.5 C

372 W/m

0.00 mm

16:30

17.4 C

1005.9 hpa

49 %

3.2 km/h aus 116

9.7 km/h aus S

6.6 C

16.4 C

17.4 C

16.4 C

367 W/m

0.00 mm

16:35

17.4 C

1005.9 hpa

55 %

3.2 km/h aus 117

9.7 km/h aus SSE

8.3 C

16.6 C

17.4 C

16.6 C

336 W/m

0.00 mm

16:40

17.3 C

1005.9 hpa

53 %

4.8 km/h aus 113

9.7 km/h aus SSE

7.6 C

16.4 C

17.3 C

16.4 C

290 W/m

0.00 mm

16:45

17.3 C

1005.7 hpa

57 %

0.0 km/h aus 116

0.0 km/h aus ---

8.7 C

16.6 C

17.3 C

16.6 C

266 W/m

0.00 mm

16:50

17.1 C

1005.7 hpa

54 %

1.6 km/h aus 116

6.4 km/h aus SSE

7.7 C

16.3 C

17.1 C

16.3 C

246 W/m

0.00 mm

16:55

17.1 C

1005.7 hpa

53 %

1.6 km/h aus 117

4.8 km/h aus SSE

7.4 C

16.2 C

17.1 C

16.2 C

237 W/m

0.00 mm

17:00

17.0 C

1005.6 hpa

56 %

0.0 km/h aus 114

0.0 km/h aus ---

8.2 C

16.2 C

17.0 C

16.2 C

236 W/m

0.00 mm

17:05

17.1 C

1005.6 hpa

54 %

0.0 km/h aus 114

4.8 km/h aus SSE

7.7 C

16.2 C

17.1 C

16.2 C

252 W/m

0.00 mm

17:10

17.1 C

1005.6 hpa

53 %

0.0 km/h aus 117

4.8 km/h aus SE

7.4 C

16.2 C

17.1 C

16.2 C

247 W/m

0.00 mm

17:15

17.0 C

1005.5 hpa

52 %

0.0 km/h aus 117

0.0 km/h aus ---

7.1 C

16.1 C

17.0 C

16.1 C

278 W/m

0.00 mm

17:20

17.1 C

1005.5 hpa

53 %

0.0 km/h aus 116

0.0 km/h aus ---

7.4 C

16.2 C

17.1 C

16.2 C

251 W/m

0.00 mm

17:25

17.3 C

1005.5 hpa

54 %

0.0 km/h aus 114

6.4 km/h aus E

7.9 C

16.4 C

17.3 C

16.4 C

238 W/m

0.00 mm

17:30

17.2 C

1005.3 hpa

57 %

1.6 km/h aus 116

8.0 km/h aus E

8.6 C

16.5 C

17.2 C

16.5 C

235 W/m

0.00 mm

17:35

17.1 C

1005.3 hpa

54 %

4.8 km/h aus 117

9.7 km/h aus ESE

7.7 C

16.2 C

17.1 C

16.2 C

269 W/m

0.00 mm

17:40

17.2 C

1005.3 hpa

52 %

3.2 km/h aus 117

8.0 km/h aus ENE

7.2 C

16.2 C

17.2 C

16.2 C

269 W/m

0.00 mm

17:45

17.2 C

1005.1 hpa

54 %

1.6 km/h aus 116

8.0 km/h aus ENE

7.8 C

16.3 C

17.2 C

16.3 C

259 W/m

0.00 mm

17:50

17.2 C

1005.1 hpa

57 %

1.6 km/h aus 115

8.0 km/h aus E

8.6 C

16.5 C

17.2 C

16.5 C

241 W/m

0.00 mm

17:55

17.2 C

1005.1 hpa

54 %

3.2 km/h aus 116

11.3 km/h aus NE

7.8 C

16.4 C

17.2 C

16.4 C

228 W/m

0.00 mm

18:00

17.2 C

1005.0 hpa

53 %

1.6 km/h aus 117

6.4 km/h aus NE

7.5 C

16.3 C

17.2 C

16.3 C

229 W/m

0.00 mm

18:05

17.1 C

1005.0 hpa

52 %

1.6 km/h aus 115

8.0 km/h aus NE

7.2 C

16.2 C

17.1 C

16.2 C

229 W/m

0.00 mm

18:10

17.2 C

1005.0 hpa

53 %

3.2 km/h aus 117

9.7 km/h aus NE

7.5 C

16.3 C

17.2 C

16.3 C

248 W/m

0.00 mm

18:15

17.4 C

1005.0 hpa

51 %

0.0 km/h aus 112

4.8 km/h aus NE

7.1 C

16.4 C

17.4 C

16.4 C

325 W/m

0.00 mm

18:20

17.7 C

1005.0 hpa

51 %

0.0 km/h aus 117

4.8 km/h aus NE

7.4 C

16.8 C

17.7 C

16.8 C

354 W/m

0.00 mm

18:25

17.9 C

1005.0 hpa

53 %

1.6 km/h aus 116

6.4 km/h aus NE

8.2 C

17.1 C

17.9 C

17.1 C

318 W/m

0.00 mm

18:30

17.7 C

1004.9 hpa

51 %

0.0 km/h aus 118

6.4 km/h aus E

7.4 C

16.7 C

17.7 C

16.7 C

280 W/m

0.00 mm

18:35

17.4 C

1004.9 hpa

50 %

3.2 km/h aus 115

11.3 km/h aus ESE

6.9 C

16.4 C

17.4 C

16.4 C

244 W/m

0.00 mm

18:40

17.3 C

1004.9 hpa

51 %

1.6 km/h aus 114

6.4 km/h aus ESE

7.1 C

16.3 C

17.3 C

16.3 C

213 W/m

0.00 mm

18:45

17.3 C

1004.9 hpa

52 %

1.6 km/h aus 116

9.7 km/h aus NE

7.4 C

16.4 C

17.3 C

16.4 C

190 W/m

0.00 mm

18:50

17.3 C

1004.9 hpa

55 %

3.2 km/h aus 117

9.7 km/h aus ENE

8.1 C

16.5 C

17.3 C

16.5 C

160 W/m

0.00 mm

18:55

17.1 C

1004.9 hpa

52 %

6.4 km/h aus 116

14.5 km/h aus ENE

7.2 C

16.2 C

17.1 C

16.2 C

132 W/m

0.00 mm

19:00

16.8 C

1004.9 hpa

54 %

3.2 km/h aus 115

9.7 km/h aus E

7.5 C

15.9 C

16.8 C

15.9 C

83 W/m

0.00 mm

19:05

16.6 C

1004.9 hpa

56 %

6.4 km/h aus 114

14.5 km/h aus ESE

7.8 C

15.8 C

16.6 C

15.8 C

72 W/m

0.00 mm

19:10

16.3 C

1004.9 hpa

57 %

6.4 km/h aus 116

16.1 km/h aus E

7.8 C

15.6 C

16.3 C

15.6 C

66 W/m

0.00 mm

19:15

16.2 C

1004.9 hpa

59 %

6.4 km/h aus 117

16.1 km/h aus ESE

8.2 C

15.5 C

16.2 C

15.5 C

58 W/m

0.00 mm

19:20

16.2 C

1004.9 hpa

60 %

3.2 km/h aus 116

9.7 km/h aus ESE

8.4 C

15.6 C

16.2 C

15.6 C

45 W/m

0.00 mm

19:25

16.1 C

1004.9 hpa

59 %

4.8 km/h aus 114

11.3 km/h aus E

8.1 C

15.4 C

16.1 C

15.4 C

36 W/m

0.00 mm

19:30

15.9 C

1004.9 hpa

60 %

3.2 km/h aus 116

8.0 km/h aus ESE

8.2 C

15.3 C

15.9 C

15.3 C

26 W/m

0.00 mm

19:35

15.8 C

1004.9 hpa

61 %

3.2 km/h aus 117

8.0 km/h aus ESE

8.3 C

15.2 C

15.8 C

15.2 C

25 W/m

0.00 mm

19:40

15.7 C

1004.9 hpa

61 %

3.2 km/h aus 116

8.0 km/h aus ESE

8.2 C

15.0 C

15.7 C

15.0 C

24 W/m

0.00 mm

19:45

15.5 C

1005.0 hpa

62 %

1.6 km/h aus 116

8.0 km/h aus ESE

8.2 C

14.9 C

15.5 C

14.9 C

22 W/m

0.00 mm

19:50

15.3 C

1005.0 hpa

62 %

3.2 km/h aus 115

8.0 km/h aus ESE

8.1 C

14.7 C

15.3 C

14.7 C

19 W/m

0.00 mm

19:55

15.1 C

1005.0 hpa

62 %

1.6 km/h aus 116

8.0 km/h aus SE

7.9 C

14.4 C

15.1 C

14.4 C

17 W/m

0.00 mm

20:00

15.0 C

1004.9 hpa

62 %

1.6 km/h aus 116

8.0 km/h aus E

7.8 C

14.3 C

15.0 C

14.3 C

13 W/m

0.00 mm

20:05

14.8 C

1004.9 hpa

62 %

0.0 km/h aus 117

6.4 km/h aus E

7.6 C

14.1 C

14.8 C

14.1 C

11 W/m

0.00 mm

20:10

14.7 C

1004.9 hpa

62 %

0.0 km/h aus 117

6.4 km/h aus E

7.5 C

14.0 C

14.7 C

14.0 C

7 W/m

0.00 mm

20:15

14.6 C

1005.0 hpa

63 %

1.6 km/h aus 112

8.0 km/h aus E

7.6 C

13.9 C

14.6 C

13.9 C

3 W/m

0.00 mm

20:20

14.4 C

1005.0 hpa

63 %

0.0 km/h aus 115

0.0 km/h aus ---

7.5 C

13.8 C

14.4 C

13.8 C

0 W/m

0.00 mm

20:25

14.3 C

1005.0 hpa

64 %

0.0 km/h aus 117

0.0 km/h aus ---

7.6 C

13.7 C

14.3 C

13.7 C

0 W/m

0.00 mm

20:30

14.1 C

1005.1 hpa

64 %

0.0 km/h aus 116

0.0 km/h aus ---

7.4 C

13.5 C

14.1 C

13.5 C

0 W/m

0.00 mm

20:35

13.9 C

1005.1 hpa

65 %

1.6 km/h aus 115

9.7 km/h aus ESE

7.5 C

13.4 C

13.9 C

13.4 C

0 W/m

0.00 mm

20:40

13.7 C

1005.1 hpa

65 %

3.2 km/h aus 116

9.7 km/h aus ESE

7.2 C

13.1 C

13.7 C

13.1 C

0 W/m

0.00 mm

20:45

13.4 C

1005.1 hpa

66 %

1.6 km/h aus 114

8.0 km/h aus ESE

7.2 C

12.9 C

13.4 C

12.9 C

0 W/m

0.00 mm

20:50

13.3 C

1005.1 hpa

67 %

1.6 km/h aus 117

6.4 km/h aus ESE

7.3 C

12.8 C

13.3 C

12.8 C

0 W/m

0.00 mm

20:55

13.1 C

1005.1 hpa

67 %

3.2 km/h aus 117

8.0 km/h aus ESE

7.1 C

12.6 C

13.1 C

12.6 C

0 W/m

0.00 mm

21:00

12.9 C

1005.2 hpa

68 %

3.2 km/h aus 117

8.0 km/h aus ESE

7.1 C

12.4 C

12.9 C

12.4 C

0 W/m

0.00 mm

21:05

12.7 C

1005.2 hpa

68 %

3.2 km/h aus 116

8.0 km/h aus ESE

7.0 C

12.2 C

12.7 C

12.2 C

0 W/m

0.00 mm

21:10

12.7 C

1005.2 hpa

68 %

1.6 km/h aus 114

8.0 km/h aus ESE

6.9 C

12.2 C

12.7 C

12.2 C

0 W/m

0.00 mm

21:15

12.6 C

1005.0 hpa

68 %

1.6 km/h aus 115

8.0 km/h aus ESE

6.8 C

12.1 C

12.6 C

12.1 C

0 W/m

0.00 mm

21:20

12.4 C

1005.0 hpa

68 %

0.0 km/h aus 117

4.8 km/h aus ESE

6.7 C

12.0 C

12.4 C

12.0 C

0 W/m

0.00 mm

21:25

12.4 C

1005.0 hpa

68 %

0.0 km/h aus 117

8.0 km/h aus ESE

6.7 C

12.0 C

12.4 C

12.0 C

0 W/m

0.00 mm

21:30

12.4 C

1005.0 hpa

68 %

0.0 km/h aus 117

3.2 km/h aus ESE

6.6 C

11.9 C

12.4 C

11.9 C

0 W/m

0.00 mm

21:35

12.3 C

1005.0 hpa

68 %

0.0 km/h aus 114

0.0 km/h aus ---

6.6 C

11.9 C

12.3 C

11.9 C

0 W/m

0.00 mm

21:40

12.2 C

1005.0 hpa

68 %

0.0 km/h aus 115

1.6 km/h aus ESE

6.5 C

11.8 C

12.2 C

11.8 C

0 W/m

0.00 mm

21:45

12.2 C

1004.7 hpa

68 %

0.0 km/h aus 118

6.4 km/h aus ESE

6.4 C

11.7 C

12.2 C

11.7 C

0 W/m

0.00 mm

21:50

12.1 C

1004.7 hpa

68 %

0.0 km/h aus 117

0.0 km/h aus ---

6.4 C

11.7 C

12.1 C

11.7 C

0 W/m

0.00 mm

21:55

12.0 C

1004.7 hpa

69 %

0.0 km/h aus 117

4.8 km/h aus ESE

6.5 C

11.6 C

12.0 C

11.6 C

0 W/m

0.00 mm

22:00

11.9 C

1004.7 hpa

69 %

0.0 km/h aus 116

0.0 km/h aus ---

6.4 C

11.5 C

11.9 C

11.5 C

0 W/m

0.00 mm

22:05

11.8 C

1004.7 hpa

70 %

1.6 km/h aus 114

6.4 km/h aus ESE

6.5 C

11.4 C

11.8 C

11.4 C

0 W/m

0.00 mm

22:10

11.7 C

1004.7 hpa

70 %

0.0 km/h aus 116

0.0 km/h aus ---

6.4 C

11.3 C

11.7 C

11.3 C

0 W/m

0.00 mm

22:15

11.6 C

1004.6 hpa

71 %

0.0 km/h aus 117

0.0 km/h aus ---

6.5 C

11.2 C

11.6 C

11.2 C

0 W/m

0.00 mm

22:20

11.5 C

1004.6 hpa

70 %

0.0 km/h aus 116

0.0 km/h aus ---

6.2 C

11.1 C

11.5 C

11.1 C

0 W/m

0.00 mm

22:25

11.4 C

1004.6 hpa

70 %

0.0 km/h aus 116

0.0 km/h aus ---

6.1 C

11.1 C

11.4 C

11.1 C

0 W/m

0.00 mm

22:30

11.3 C

1004.7 hpa

71 %

0.0 km/h aus 115

0.0 km/h aus ---

6.2 C

10.9 C

11.3 C

10.9 C

0 W/m

0.00 mm

22:35

11.2 C

1004.7 hpa

71 %

0.0 km/h aus 115

0.0 km/h aus ---

6.1 C

10.8 C

11.2 C

10.8 C

0 W/m

0.00 mm

22:40

11.1 C

1004.7 hpa

72 %

0.0 km/h aus 117

0.0 km/h aus ---

6.2 C

10.8 C

11.1 C

10.8 C

0 W/m

0.00 mm

22:45

11.0 C

1004.5 hpa

72 %

0.0 km/h aus 117

0.0 km/h aus ---

6.1 C

10.7 C

11.0 C

10.7 C

0 W/m

0.00 mm

22:50

10.9 C

1004.5 hpa

72 %

0.0 km/h aus 117

0.0 km/h aus ---

6.0 C

10.6 C

10.9 C

10.6 C

0 W/m

0.00 mm

22:55

10.8 C

1004.5 hpa

72 %

0.0 km/h aus 117

1.6 km/h aus SE

6.0 C

10.6 C

10.8 C

10.6 C

0 W/m

0.00 mm

23:00

10.8 C

1004.5 hpa

72 %

0.0 km/h aus 114

0.0 km/h aus ---

6.0 C

10.6 C

10.8 C

10.6 C

0 W/m

0.00 mm

23:05

10.8 C

1004.5 hpa

72 %

0.0 km/h aus 114

0.0 km/h aus ---

5.9 C

10.5 C

10.8 C

10.5 C

0 W/m

0.00 mm

23:10

10.8 C

1004.5 hpa

72 %

0.0 km/h aus 116

0.0 km/h aus ---

5.9 C

10.5 C

10.8 C

10.5 C

0 W/m

0.00 mm

23:15

10.7 C

1004.5 hpa

72 %

0.0 km/h aus 117

0.0 km/h aus ---

5.9 C

10.4 C

10.7 C

10.4 C

0 W/m

0.00 mm

23:20

10.7 C

1004.5 hpa

73 %

0.0 km/h aus 116

0.0 km/h aus ---

6.1 C

10.5 C

10.7 C

10.5 C

0 W/m

0.00 mm

23:25

10.7 C

1004.5 hpa

74 %

0.0 km/h aus 116

0.0 km/h aus ---

6.2 C

10.4 C

10.7 C

10.4 C

0 W/m

0.00 mm

23:30

10.7 C

1004.5 hpa

74 %

0.0 km/h aus 113

3.2 km/h aus SE

6.2 C

10.4 C

10.7 C

10.4 C

0 W/m

0.00 mm

23:35

10.6 C

1004.5 hpa

75 %

4.8 km/h aus 115

6.4 km/h aus SE

6.4 C

10.3 C

10.5 C

10.4 C

0 W/m

0.00 mm

23:40

10.6 C

1004.5 hpa

75 %

1.6 km/h aus 116

9.7 km/h aus SSE

6.4 C

10.4 C

10.6 C

10.4 C

0 W/m

0.00 mm

23:45

10.7 C

1005.0 hpa

78 %

4.8 km/h aus 117

9.7 km/h aus SSE

7.0 C

10.4 C

10.6 C

10.6 C

0 W/m

0.00 mm

23:50

10.7 C

1005.0 hpa

77 %

4.8 km/h aus 117

9.7 km/h aus SSE

6.9 C

10.4 C

10.6 C

10.6 C

0 W/m

0.00 mm

23:55

10.8 C

1005.0 hpa

76 %

3.2 km/h aus 117

8.0 km/h aus SSE

6.7 C

10.6 C

10.8 C

10.6 C

0 W/m

0.00 mm